MDT,Max TemperatureF,Mean TemperatureF,Min TemperatureF,Max Dew PointF,MeanDew PointF,Min DewpointF,Max Humidity, Mean Humidity, Min Humidity, Max Sea Level PressureIn, Mean Sea Level PressureIn, Min Sea Level PressureIn, Max VisibilityMiles, Mean VisibilityMiles, Min VisibilityMiles, Max Wind SpeedMPH, Mean Wind SpeedMPH, Max Gust SpeedMPH,PrecipitationIn, CloudCover, Events, WindDirDegrees
2011-10-1,71,50,30,39,31,25,81,54,19,30.51,30.43,30.32,10,10,10,16,1,29,0.00,1,Thunderstorm,278
2011-10-2,69,51,33,37,33,27,81,55,23,30.48,30.41,30.32,10,10,10,14,2,22,0.00,2,,324
2011-10-3,69,50,32,39,33,25,80,54,27,30.45,30.36,30.26,10,10,10,15,4,23,0.00,3,,27
2011-10-4,62,52,42,45,39,34,82,69,39,30.32,30.24,30.15,10,10,2,17,7,43,0.25,7,Thunderstorm,10
2011-10-5,60,51,42,43,36,28,87,61,31,30.13,30.00,29.89,10,10,10,17,4,28,0.04,6,,161
2011-10-6,50,42,33,37,28,16,81,55,34,29.94,29.78,29.63,10,10,2,24,10,31,0.11,6,,205
2011-10-7,46,34,21,27,20,14,86,64,31,30.08,30.02,29.97,10,10,10,13,2,20,0.00,2,,355
2011-10-8,44,38,33,27,22,16,70,54,31,30.14,30.03,29.93,10,10,10,16,6,22,0.00,6,,252
2011-10-9,50,36,21,25,20,16,86,58,30,30.24,30.19,30.11,10,10,10,15,3,20,0.00,4,,311
2011-10-10,55,40,24,27,23,19,80,53,25,30.23,30.15,30.07,10,10,10,15,2,23,0.00,2,,289
2011-10-11,55,44,32,34,28,23,75,53,31,30.14,30.11,30.06,10,10,10,20,5,29,0.00,6,,273
2011-10-12,60,46,32,28,21,9,69,39,14,30.33,30.26,30.17,10,10,10,16,8,21,0.00,1,,304
2011-10-13,66,44,21,27,21,16,80,47,20,30.40,30.30,30.18,10,10,10,18,3,30,0.00,0,,278
2011-10-14,66,45,24,30,23,18,80,52,18,30.34,30.28,30.21,10,10,10,20,3,25,0.00,0,,287
2011-10-15,71,48,24,27,22,18,74,43,14,30.45,30.34,30.25,10,10,10,17,2,24,0.00,0,,283
2011-10-16,71,48,24,27,19,16,80,41,13,30.38,30.27,30.18,10,10,10,22,3,29,0.00,0,,331
2011-10-17,57,45,32,34,25,18,81,44,28,30.38,30.23,30.08,10,10,7,24,9,33,0.04,3,,300
2011-10-18,57,38,19,23,17,9,86,50,14,30.44,30.38,30.32,10,10,10,15,3,20,0.00,0,,174
2011-10-19,64,40,17,18,13,7,79,44,12,30.39,30.27,30.09,10,10,10,14,2,17,0.00,0,,328
2011-10-20,60,40,19,21,15,9,68,43,19,30.35,30.25,30.18,10,10,10,17,2,23,0.00,0,,256
2011-10-21,62,40,19,23,17,10,80,46,16,30.46,30.37,30.29,10,10,10,14,2,25,0.00,0,,290
2011-10-22,62,40,19,23,17,12,74,44,19,30.42,30.35,30.29,10,10,10,17,3,23,0.00,0,,312
2011-10-23,64,40,17,23,15,3,80,43,12,30.48,30.40,30.30,10,10,10,12,2,23,0.00,0,,318
2011-10-24,66,42,17,19,14,5,68,36,15,30.41,30.28,30.13,10,10,10,20,4,28,0.00,0,,312
2011-10-25,51,40,28,37,25,12,87,58,36,30.22,30.17,30.08,10,10,7,15,6,23,0.10,5,,80
2011-10-26,39,36,33,34,30,27,93,82,75,30.11,30.03,29.97,10,10,0,12,4,,0.02,7,,166
2011-10-27,42,36,30,27,22,18,80,65,39,30.25,30.16,30.10,10,10,10,8,5,,0.00,6,,213
2011-10-28,46,32,17,19,16,10,80,58,27,30.42,30.35,30.25,10,10,10,10,2,,0.00,0,,12
2011-10-29,51,33,15,19,14,10,86,55,19,30.36,30.30,30.20,10,10,9,18,3,24,0.00,0,,298
2011-10-30,55,36,17,21,18,12,86,53,23,30.42,30.36,30.32,10,10,10,10,2,,0.00,0,,261
2011-10-31,57,37,17,23,18,12,86,55,21,30.40,30.28,30.17,10,10,9,17,2,23,0.00,0,,299